星链-31594 (STARLINK-31594 )

导读 | 豆包AI

STARLINK-31594是美国SpaceX星链(Starlink)星座中的一颗卫星,于2024年3月25日发射入轨,属于星链低轨互联网星座的扩容卫星,该星座旨在为全球用户提供高速低延迟的宽带互联网服务,尤其覆盖偏远地区。这颗卫星延续星链标准设计,依托可自主脱轨的推进系统,助力星座规模扩展与全球网络覆盖优化。

基本信息
目录编号:
59332
目录名称:
STARLINK-31594
国际标识:
2024-057N
轨道中心:
EARTH
卫星名称:
星链-31594
卫星全名:
星链-31594 (STARLINK-31594 )
卫星状态:
在轨 (已飞行767 天)
发射日期:
2024-03-25 UTC
国别 :
美国 (US)
星等 :
--
轨道信息
数据来源 国际轨道数据
星历时间: 2026-04-30T18:39:32+0800
13小时前
查看轨道信息
半长轴: 6861.253km
偏心率: 0.0001322
轨道倾角: 43.004°
近地点辐角 275.156°
升交点赤经 266.089°
平近点角 84.914°
近地点: 482.208km
远地点: 484.024km
周期: 94.268分钟
每日圈数: 15.275579
详细信息
固有亮度:
5
最大亮度:
0.3
卫星平台:
Starlink v2.0 mini
覆盖范围:
全球
运营商:
太空探索技术公司
运营商所在国:
美国
制造商(研发单位):
太空探索技术公司
制造商所在国:
美国
使用方式:
暂无
卫星简介
星链(Starlink)计划是由太空探索技术公司(SpaceX)提出的一个巨型低轨卫星互联网星座项目,计划在2019年至2024年间在太空搭建由约1.2万颗卫星组成的“星链”网络,其中1584颗将部署在地球上空550千米处的近地轨道,并从2020年开始工作。该卫星仍在工作。
2D轨道图
3D轨道图
轨道高度分析图
轨道倾角分析图
轨道综合分析图
查看轨道综合分析图